Saint Louis, MO

5:41 AM CST on December 07, 2016 (GMT -0600)
Lambert-Saint Louis International

Weather History for KSTL - February, 2014

Change the Weather History Date:

Thursday, February 27, 2014

  Actual Average Record
Temperature  
Mean Temperature 24 °F 40 °F  
Max Temperature 29 °F 49 °F 79 °F (1981)
Min Temperature 19 °F 31 °F -8 °F (1934)
Degree Days  
Heating Degree Days 41 25  
Month to date heating degree days 1012 780  
Since 1 July heating degree days 4006 3574  
Cooling Degree Days 0 0  
Month to date cooling degree days 0 0  
Year to date cooling degree days 0 0  
Moisture  
Dew Point 0 °F    
Average Humidity 44    
Maximum Humidity 67    
Minimum Humidity 21    
Precipitation  
Precipitation 0.00 in 0.08 in 0.99 in (1889)
Month to date precipitation 1.48 2.16  
Year to date precipitation 3.15 4.56  
Snow  
Snow 0.00 in 0.20 in 4.50 in (1984)
Month to date snowfall 5.8 4.2  
Since 1 July snowfall 27.2 14.9  
Snow Depth 0.00 in    
Sea Level Pressure  
Sea Level Pressure 30.12 in    
Wind  
Wind Speed 11 mph (North)    
Max Wind Speed 21 mph    
Max Gust Speed 25 mph    
Visibility 10 miles    
Events      
T = Trace of Precipitation, MM = Missing Value Source: NWS Daily Summary

Daily Weather History Graph

Daily Weather History Graph

Search for Another Location

Airport or City:

Trip Planner

Search our weather history database for the weather conditions in past years. The results will help you decide how hot, cold, wet, or windy it might be!

Date:

Astronomy

Feb. 27, 2014 Rise Set
Actual Time 6:36 AM CST 5:52 PM CST
Civil Twilight 6:09 AM CST 6:19 PM CST
Nautical Twilight 5:39 AM CST 6:49 PM CST
Astronomical Twilight 5:08 AM CST 7:20 PM CST
Moon 5:08 AM CST (2/27) 4:18 PM CST (2/27)
Length of Visible Light 12h 09m
Length of Day
11h 15m
Waning Crescent, 4% of the Moon is Illuminated
Feb 27
Waning Crescent
Mar 1
New
Mar 8
First Quarter
Mar 16
Full
Mar 23
Last Quarter

Hourly Weather History & Observations

Time (CST) Temp. Windchill Dew Point Humidity Pressure Visibility Wind Dir Wind Speed Gust Speed Precip Events Conditions
12:51 AM 25.0 °F 12.2 °F 7.0 °F 46% 29.97 in 10.0 mi WSW 16.1 mph 24.2 mph N/A   Clear
1:51 AM 24.1 °F 11.0 °F 9.0 °F 53% 29.97 in 10.0 mi West 16.1 mph - N/A   Clear
2:51 AM 26.1 °F 13.6 °F 10.9 °F 53% 29.97 in 10.0 mi West 16.1 mph - N/A   Clear
3:51 AM 25.0 °F 12.6 °F 12.0 °F 58% 29.97 in 10.0 mi West 15.0 mph - N/A   Clear
4:51 AM 24.1 °F 14.4 °F 12.9 °F 62% 30.00 in 10.0 mi WNW 9.2 mph - N/A   Clear
5:51 AM 25.0 °F 13.6 °F 12.9 °F 60% 30.03 in 10.0 mi NW 12.7 mph - N/A   Scattered Clouds
6:51 AM 19.9 °F 7.3 °F 10.0 °F 65% 30.09 in 10.0 mi North 12.7 mph - N/A   Partly Cloudy
7:51 AM 21.0 °F 6.6 °F -0.9 °F 38% 30.13 in 10.0 mi NW 17.3 mph 25.3 mph N/A   Partly Cloudy
8:51 AM 21.9 °F 9.8 °F -5.1 °F 30% 30.18 in 10.0 mi NNW 12.7 mph - N/A   Partly Cloudy
9:51 AM 23.0 °F 10.6 °F -7.1 °F 27% 30.21 in 10.0 mi NNW 13.8 mph - N/A   Clear
10:51 AM 24.1 °F 13.1 °F -2.9 °F 31% 30.22 in 10.0 mi NW 11.5 mph 16.1 mph N/A   Clear
11:51 AM 26.1 °F 15.6 °F -7.1 °F 23% 30.21 in 10.0 mi North 11.5 mph - N/A   Clear
12:51 PM 27.0 °F 19.5 °F -6.0 °F 24% 30.18 in 10.0 mi WNW 6.9 mph 17.3 mph N/A   Clear
1:51 PM 26.1 °F 20.5 °F -9.0 °F 21% 30.17 in 10.0 mi Variable 4.6 mph - N/A   Clear
2:51 PM 28.0 °F 20.8 °F -8.0 °F 21% 30.15 in 10.0 mi Variable 6.9 mph - N/A   Clear
3:51 PM 28.9 °F 21.9 °F -7.1 °F 21% 30.15 in 10.0 mi North 6.9 mph - N/A   Clear
4:51 PM 27.0 °F 19.5 °F -7.1 °F 23% 30.14 in 10.0 mi NNE 6.9 mph - N/A   Clear
5:51 PM 25.0 °F 17.1 °F -7.1 °F 24% 30.16 in 10.0 mi NE 6.9 mph - N/A   Clear
6:51 PM 24.1 °F 16.0 °F -7.1 °F 25% 30.17 in 10.0 mi NE 6.9 mph - N/A   Clear
7:51 PM 23.0 °F 12.4 °F -0.9 °F 35% 30.16 in 10.0 mi ENE 10.4 mph - N/A   Partly Cloudy
8:51 PM 21.0 °F 10.6 °F -0.9 °F 38% 30.16 in 10.0 mi ENE 9.2 mph - N/A   Clear
9:51 PM 19.9 °F 9.3 °F 3.0 °F 48% 30.18 in 10.0 mi East 9.2 mph - N/A   Clear
10:51 PM 19.0 °F 9.0 °F 1.9 °F 47% 30.18 in 10.0 mi East 8.1 mph - N/A   Clear
11:51 PM 19.0 °F 6.1 °F 3.0 °F 50% 30.16 in 10.0 mi East 12.7 mph - N/A   Partly Cloudy